Flag for Canada Weather past 2 weeks in Greater Sudbury, Ontario, Canada

Now
7 °F

Clear.


Feels Like: -9 °F
Forecast: -4 / 16 °F
Wind: 13 mph from Southwest

Location: Sudbury

Current Time: Feb 27, 2015 at 8:11:59 PM

Latest Report: Feb 27, 2015 at 7:00 PM


Visibility: 15 mi

Pressure: 30.45 "Hg

Humidity: 61%

Dew point: -4 °F

Location of Greater SudburyLocation

Historic Weather in Greater Sudbury — Graph

°F

Greater Sudbury temperature yesterday

Maximum temperature yesterday: 3 °F (at 3:00 PM)
Minimum temperature yesterday: -15 °F (at 7:00 AM)
Average temperature yesterday: -5 °F

Past Weeks' High & Low Weather Summary

 TemperatureHumidityPressure
High16 °F (Feb 21, 3:00 PM)92% (Feb 21, 7:00 PM)30.53 "Hg (Feb 21, 7:00 PM)
Low-26 °F (Feb 15, 7:00 AM)40% (Feb 15, 4:00 PM)29.39 "Hg (Feb 24, 5:00 PM)
Average-4 °F69%30.07 "Hg
* Reported Feb 12 7:00 PM — Feb 27 7:00 PM, Greater Sudbury, Weather by CustomWeather, © 2015

Note: Actual official high and low records may vary slightly from our data, if they occured in-between our weather recording intervals... More about our weather records

Advertising

Greater Sudbury weather history for previous 24 hours

 ConditionsComfort  
Time TempWeatherWind HumidityBarometerVisibility
7:00 PM
Fri, Feb 27
7 °FClear.13 mph61%30.45 "Hg15 mi
6:00 PM9 °FSunny.14 mph56%30.43 "Hg20 mi
5:00 PM10 °FSunny.16 mph56%30.41 "Hg20 mi
4:00 PM12 °FSunny.17 mph57%30.41 "Hg20 mi
3:00 PM12 °FPassing clouds.16 mph52%30.40 "Hg20 mi
2:00 PM10 °FPassing clouds.15 mph52%30.40 "Hg20 mi
1:00 PM9 °FPassing clouds.13 mph56%30.41 "Hg20 mi
12:00 PM7 °FPassing clouds.10 mph56%30.42 "Hg20 mi
11:00 AM3 °FPassing clouds.9 mph60%30.41 "Hg20 mi
10:00 AM-4 °FSunny.6 mph71%30.41 "Hg20 mi
9:00 AM-9 °FSunny.5 mph77%30.41 "Hg20 mi
8:00 AM-11 °FSunny.8 mph76%30.37 "Hg20 mi
7:00 AM-13 °FPassing clouds.8 mph83%30.35 "Hg15 mi
6:00 AM-13 °FPassing clouds.6 mph83%30.33 "Hg15 mi
5:00 AM-11 °FClear.6 mph76%30.31 "Hg15 mi
4:00 AM-13 °FClear.9 mph83%30.29 "Hg15 mi
3:00 AM-11 °FClear.6 mph76%30.30 "Hg15 mi
2:00 AM-11 °FClear.6 mph70%30.30 "Hg15 mi
1:00 AM-11 °FClear.6 mph76%30.29 "Hg15 mi
12:00 AM-8 °FClear.6 mph70%30.28 "Hg15 mi
11:00 PM
Thu, Feb 26
-6 °FPassing clouds.6 mph70%30.27 "Hg15 mi
10:00 PM-4 °FPassing clouds.5 mph65%30.27 "Hg15 mi
9:00 PM-4 °FClear.7 mph65%30.25 "Hg15 mi
8:00 PM-2 °FClear.5 mph49%30.24 "Hg15 mi
Weather by CustomWeather, © 2015

See weather overviewHow to use our weather pages